Regional Weather Roundup
Issued by NWS

Home | Current Version | Previous Version | Graphics & Text | Print | Product List | Glossary On
Versions: 1 2 3 4 5 6 7 8 9 10 11 12 13 14 15 16 17 18 19 20 21 22 23 24 25 26 27 28 29 30 31 32 33 34 35 36 37 38 39 40 41 42 43 44 45 46 47 48 49 50
420
ASUS45 KBOI 251010
RWRID

IDAHO REGIONAL WEATHER ROUNDUP
NATIONAL WEATHER SERVICE BOISE ID
400 AM MDT TUE APR 25 2017

NOTE: "FAIR" INDICATES FEW OR NO CLOUDS BELOW 12000 FEET
WITH NO SIGNIFICANT WEATHER AND/OR OBSTRUCTIONS TO VISIBILITY

IDZ012-014-251100-
SOUTHWEST IDAHO


CITY           SKY/WX    TMP DP  RH WIND       PRES   REMARKS
BOISE          CLOUDY    44  37  76 NW16      29.83R
CALDWELL       CLOUDY    45  38  76 W14       29.85R
MOUNTAIN HOME  MOCLDY    41  41 100 W13       29.81S
$$

IDZ016-017-251100-
SOUTHCENTRAL IDAHO


CITY           SKY/WX    TMP DP  RH WIND       PRES   REMARKS
BURLEY         CLOUDY    39  34  82 W17       29.74S WCI  30
JEROME         MOCLDY    39  36  89 SW18      29.77S WCI  30
TWIN FALLS     CLOUDY    38  36  92 SW16G24   29.77F WCI  29
$$

IDZ019>023-251100-
SOUTHEAST IDAHO


CITY           SKY/WX    TMP DP  RH WIND       PRES   REMARKS
IDAHO FALLS    CLOUDY    38  36  92 SW17      29.69S WCI  28
POCATELLO      CLOUDY    40  36  86 SW21      29.74R WCI  30
REXBURG        LGT RAIN  37  36  96 SW12      29.67R WCI  29
$$

IDZ006-010-011-018-031-032-251100-
CENTRAL IDAHO MOUNTAINS


CITY           SKY/WX    TMP DP  RH WIND       PRES   REMARKS
MCCALL         FLURRIES  33  31  92 NW3       29.77R
HAILEY         PTCLDY    32  28  86 NW8       29.71S WCI  25
STANLEY          N/A     33  31  92 CALM      29.75R
SALMON         CLOUDY    36  34  93 CALM      29.73S
CHALLIS        MOCLDY    36  31  82 NW5       29.72R WCI  32
$$

IDZ002-004-006-007-026-251100-
NORTHERN IDAHO


CITY           SKY/WX    TMP DP  RH WIND       PRES   REMARKS
LEWISTON       LGT RAIN  47  44  90 SW3       29.84R
LOWELL           N/A     46  44  93 CALM      29.84R
COEUR D`ALENE  CLOUDY    43  40  89 S5        29.81R
MULLAN PASS    FOG       30  30 100 NW6       29.75S VSB 1/2 WCI  24
$$




USA.gov is the U.S. government's official web portal to all federal, state and local government web resources and services.